Location: Marsån
(66.4167°N, 22.2833°E)
Time: 11:08:41
(UTC+00:00)

SJ 16-02 - Pass Details

Date: 24 February 2024
Orbit: 595 x 607 km, 75.0° (Epoch: 16 April)

Event Time Altitude Azimuth Distance (km) Brightness Sun altitude
Rises 20:19:31 0° 241° (WSW) 2,864 4.9 -27.9°
Reaches altitude 10° 20:21:49 10° 247° (WSW) 1,964 4.1 -28.1°
Enters shadow 20:24:59 40° 279° (W) 915 2.5 -28.3°
Exits shadow 20:31:34 - 43° (NE) 2,438 4.5 -28.7°
Sets 20:32:42 0° 46° (NE) 2,885 4.9 -28.8°
